Showing default

ARVAKER-2, 64567

Orbit data source: Space-Track

ARVAKER-2, 64567 is a payload satellite owned by NSC (NO) in SSO that was launched on Mon, 23 Jun 2025 UTC via an FALCON 9 launch vehicle from the Air Force Western Test Range (AFWTR). Payload-class satellites include a variety of spacecraft equipped with specific instruments for various scientific and technological missions. These include communications satellites like Starlink; space stations such as the ISS; scientific satellites like the Hubble; Earth observation satellites from companies like Planet Labs, Umbra, and HawkEye 360; GPS; miniature CubeSats for education and research; and military/defense satellites.

Loading next visibility...
Identifier
64567, 2025-135AR
Orbit
SSO
Country
Flag of NONO / NOR
Related business
Manufacturer
NanoAvionics
Mission
Operational Commercial Sigint
Bus & Motor
MP42, Unknown motor
Mass
~100 kg wet, ~100 kg dry
Launch date (UTC)
2025-06-23 (11 months ago)
Launch vehicle
FALCON 9
Launch site
Air Force Western Test Range (AFWTR)
Object type
Payload
Rocket body
Debris
Shape & HBR
Box + 2 Pan, 0.5 m
Radar Cross Section
0.146 m², Medium (>0.1 m² and < 1m²)

Expand to show TLE details & history
Last TLE update: 7 hours ago

TLE from 7 hours ago
0 ARVAKER-2
1 64567U 25135AR  26133.26083523  .00001403  00000-0  13900-3 0  9992
2 64567  97.7698 247.8176 0002770  83.9963 276.1572 14.93411777 48663
Epoch: 2026-05-13T06:15Z
TLE epoch observation values (Epoch: 2026-05-13T06:15:36.163Z)
Latitude
-0.00007°
Longitude
-77.10647°
Altitude
590.144 km
Speed
7.565 km/s
True Right ascension
16h 31m 16s
True Declination
0° 00' 00"
Sunlit
Object was in full shadow at epoch
Visualization orbit readout
Latitude
Unknown
Longitude
Unknown
Altitude
Unknown
Speed
Unknown
Apparent Right ascension
Unknown
Apparent Declination
Unknown
Sunlit
N/A
Visualization observer readout
Local Sidereal Time
22:06:32
Azimuth
Unknown
Elevation
Unknown
Doppler factor
Unknown
Orbital elements
Apogee altitude
586.253 km
Perigee altitude
582.395 km
Semi-major axis
6,962.461 km
Eccentricity
0.00028
Inclination
97.7698°
RAAN
247.8176°
Arg. of periapsis
83.9963°
True anomaly
276.12564°
Mean anomaly
276.1572°
Eccentric anomaly
276.14142°
Mean motion
3.73593 °/min
Orbital period
96.36 mins
BSTAR
0.000139
Loading maneuver chart data...
Computing Atmospheric mass density...
Loading historical data...
Loading historical data...
Loading historical data...
Loading historical data...
Loading historical data...
Loading historical data...
Loading historical data...

Documentation

Showing up to 5 results
|